IU1JVO-13 Weather Reports


Display with metric or nautical units.
time (UTC)temp
F
wind
direction
speed
MPH
gust
MPH
rain 1hr
in
rain 24hr
in
rain mn
in
humidity
%
barometer
mb
20260831022413 66 356 1.0 1.0 0.00 0.00 0.00 74 1018.9
20260831022316 66 0 1.0 1.0 0.00 0.00 0.00 74 1018.7
20260831021816 66 17 1.0 1.0 0.00 0.00 0.00 74 1018.7
20260831021413 66 26 1.0 2.0 0.00 0.00 0.00 75 1019.0
20260831021317 66 26 1.0 2.0 0.00 0.00 0.00 75 1018.9
20260831020816 66 26 1.0 2.0 0.00 0.00 0.00 75 1018.7
20260831020413 66 24 1.0 2.0 0.00 0.00 0.00 75 1018.9
20260831020316 66 17 1.0 2.0 0.00 0.00 0.00 75 1019.1
20260831015817 66 319 2.0 2.0 0.00 0.00 0.00 75 1019.1
20260831015412 67 285 2.0 2.0 0.00 0.00 0.00 73 1019.0
20260831015316 67 285 2.0 2.0 0.00 0.00 0.00 73 1019.1
20260831014816 67 285 2.0 3.0 0.00 0.00 0.00 73 1019.2
20260831014413 67 285 2.0 3.0 0.00 0.00 0.00 73 1019.1
20260831014316 67 285 2.0 3.0 0.00 0.00 0.00 73 1019.1
20260831013816 67 285 2.0 3.0 0.00 0.00 0.00 73 1019.2
20260831013413 67 291 1.0 3.0 0.00 0.00 0.00 73 1019.2
20260831013316 67 292 1.0 3.0 0.00 0.00 0.00 73 1019.2
20260831012815 67 290 0.0 2.0 0.00 0.00 0.00 73 1019.2
20260831012413 67 283 0.0 0.0 0.00 0.00 0.00 73 1019.1
20260831012315 67 281 0.0 0.0 0.00 0.00 0.00 73 1019.0
20260831011816 68 281 0.0 0.0 0.00 0.00 0.00 72 1019.2
20260831011412 68 281 0.0 0.0 0.00 0.00 0.00 72 1019.2
20260831011316 68 281 0.0 0.0 0.00 0.00 0.00 72 1019.3
20260831010816 68 281 0.0 0.0 0.00 0.00 0.00 72 1019.3
20260831010413 68 281 0.0 0.0 0.00 0.00 0.00 72 1019.2
20260831010316 68 281 0.0 0.0 0.00 0.00 0.00 72 1019.3
20260831005816 68 281 0.0 0.0 0.00 0.00 0.00 72 1019.3
20260831005412 68 280 0.0 0.0 0.00 0.00 0.00 72 1019.4
20260831005315 68 278 0.0 0.0 0.00 0.00 0.00 72 1019.4
20260831005044 68 270 0.0 0.0 0.00 0.00 0.00 72 1019.3
20260831004412 69 265 0.0 0.0 0.00 0.00 0.00 69 1019.6
20260831004316 69 265 0.0 0.0 0.00 0.00 0.00 69 1019.7
20260831003816 69 265 0.0 0.0 0.00 0.00 0.00 69 1019.7
20260831003412 69 265 0.0 1.0 0.00 0.00 0.00 69 1019.6
20260831003316 69 265 0.0 1.0 0.00 0.00 0.00 69 1019.6
20260831003048 69 280 0.0 1.0 0.00 0.00 0.00 69 1019.6
20260831002412 69 312 0.0 1.0 0.00 0.00 0.00 69 1019.6
20260831002320 69 319 0.0 1.0 0.00 0.00 0.00 69 1019.6
20260831001811 70 309 1.0 1.0 0.00 0.00 0.00 68 1019.8
20260831001412 71 299 1.0 1.0 0.00 0.00 0.00 61 1019.8
20260831001311 71 299 1.0 1.0 0.00 0.00 0.00 61 1019.9
20260831000811 71 299 1.0 1.0 0.00 0.00 0.00 61 1019.9
20260831000412 71 299 1.0 4.0 0.00 0.00 0.00 61 1019.9
20260831000310 71 299 1.0 4.0 0.00 0.00 0.00 61 1019.9
20260830235809 71 299 1.0 4.0 0.00 0.00 0.00 61 1019.9
20260830235413 71 292 2.0 4.0 0.00 0.00 0.00 61 1019.9
20260830235309 71 288 2.0 4.0 0.00 0.00 0.00 61 1019.9
20260830234806 71 271 3.0 4.0 0.00 0.00 0.00 61 1019.9
20260830234412 73 264 4.0 4.0 0.00 0.00 0.00 61 1020.0
20260830234305 73 264 4.0 4.0 0.00 0.00 0.00 61 1020.0
20260830233806 73 264 4.0 4.0 0.00 0.00 0.00 61 1019.9
20260830233411 73 264 4.0 4.0 0.00 0.00 0.00 61 1019.9
20260830233306 73 264 4.0 4.0 0.00 0.00 0.00 61 1019.9
20260830232805 73 264 4.0 4.0 0.00 0.00 0.00 61 1019.9
20260830232407 73 264 4.0 4.0 0.00 0.00 0.00 61 1020.0
20260830232306 73 264 4.0 4.0 0.00 0.00 0.00 61 1020.0
20260830231806 73 264 4.0 4.0 0.00 0.00 0.00 61 1020.0
20260830231538 73 264 4.0 6.0 0.00 0.00 0.00 61 1020.1
20260830231525 73 264 4.0 4.0 0.00 0.00 0.00 61 1020.1
20260830230809 73 264 4.0 6.0 0.00 0.00 0.00 61 1020.1
20260830230407 73 264 4.0 6.0 0.00 0.00 0.00 61 1020.2
20260830230304 73 264 4.0 6.0 0.00 0.00 0.00 61 1020.2
20260830225802 73 255 5.0 6.0 0.00 0.00 0.00 61 1020.2
20260830225407 73 248 6.0 6.0 0.00 0.00 0.00 61 1020.3
20260830225305 73 246 6.0 6.0 0.00 0.00 0.00 62 1020.4
20260830224801 73 259 4.0 6.0 0.00 0.00 0.00 62 1020.4
20260830224406 73 270 3.0 6.0 0.00 0.00 0.00 62 1020.3
20260830224300 73 272 2.0 6.0 0.00 0.00 0.00 62 1020.3
20260830223758 73 261 1.0 5.0 0.00 0.00 0.00 62 1020.3
20260830223405 73 251 1.0 4.0 0.00 0.00 0.00 62 1020.3
20260830223257 73 250 0.0 4.0 0.00 0.00 0.00 61 1020.3
20260830222757 73 248 0.0 1.0 0.00 0.00 0.00 61 1020.3
20260830222534 73 248 0.0 1.0 0.00 0.00 0.00 61 1020.2
20260830222519 73 248 0.0 1.0 0.00 0.00 0.00 61 1020.3
20260830221756 73 248 1.0 2.0 0.00 0.00 0.00 61 1020.3
20260830221404 73 248 1.0 2.0 0.00 0.00 0.00 61 1020.4
20260830221256 73 248 1.0 2.0 0.00 0.00 0.00 61 1020.4
20260830220756 73 263 1.0 2.0 0.00 0.00 0.00 61 1020.3
20260830220404 73 280 2.0 2.0 0.00 0.00 0.00 61 1020.2
20260830220302 74 291 2.0 5.0 0.00 0.00 0.00 61 1020.4
20260830220256 73 285 2.0 2.0 0.00 0.00 0.00 61 1020.2
20260830215402 74 291 2.0 6.0 0.00 0.00 0.00 61 1020.2
20260830215252 74 291 2.0 6.0 0.00 0.00 0.00 61 1020.3
20260830214752 74 288 2.0 6.0 0.00 0.00 0.00 61 1020.2
20260830214402 74 280 2.0 7.0 0.00 0.00 0.00 61 1020.2
20260830214253 74 276 2.0 7.0 0.00 0.00 0.00 61 1020.2
20260830213752 74 260 2.0 7.0 0.00 0.00 0.00 60 1020.0
20260830213402 74 266 3.0 7.0 0.00 0.00 0.00 61 1020.0
20260830213252 74 272 2.0 7.0 0.00 0.00 0.00 61 1020.0
20260830213023 74 296 2.0 7.0 0.00 0.00 0.00 61 1020.1
20260830212403 73 321 1.0 4.0 0.00 0.00 0.00 62 1020.0
20260830212252 73 323 1.0 3.0 0.00 0.00 0.00 62 1019.8
20260830211752 73 306 1.0 4.0 0.00 0.00 0.00 63 1019.8
20260830211402 73 283 0.0 4.0 0.00 0.00 0.00 64 1019.8
20260830211251 73 278 0.0 4.0 0.00 0.00 0.00 64 1019.9
20260830210752 73 275 1.0 5.0 0.00 0.00 0.00 64 1019.8
20260830210402 73 274 1.0 6.0 0.00 0.00 0.00 63 1019.9
20260830210252 73 273 2.0 6.0 0.00 0.00 0.00 63 1019.8
20260830210025 73 273 2.0 6.0 0.00 0.00 0.00 62 1020.0
20260830205402 74 273 2.0 6.0 0.00 0.00 0.00 62 1019.9
20260830205250 74 277 2.0 6.0 0.00 0.00 0.00 62 1019.9
20260830204750 74 286 1.0 6.0 0.00 0.00 0.00 62 1019.8
20260830204404 74 289 1.0 5.0 0.00 0.00 0.00 61 1019.9
20260830204250 74 287 1.0 5.0 0.00 0.00 0.00 61 1019.8
20260830203750 74 292 1.0 5.0 0.00 0.00 0.00 61 1019.8
20260830203402 74 296 1.0 6.0 0.00 0.00 0.00 62 1019.8
20260830203250 74 297 1.0 6.0 0.00 0.00 0.00 61 1019.8
20260830202750 74 278 1.0 6.0 0.00 0.00 0.00 62 1019.8
20260830202402 74 266 1.0 6.0 0.00 0.00 0.00 62 1019.8
20260830202250 74 264 1.0 6.0 0.00 0.00 0.00 62 1019.7
20260830201748 74 276 2.0 6.0 0.00 0.00 0.00 61 1019.8
20260830201402 74 278 2.0 6.0 0.00 0.00 0.00 61 1019.8
20260830201249 74 277 1.0 6.0 0.00 0.00 0.00 61 1019.7
20260830200748 74 272 0.0 3.0 0.00 0.00 0.00 61 1019.7
20260830200403 74 270 0.0 1.0 0.00 0.00 0.00 62 1019.7
20260830200247 74 269 0.0 1.0 0.00 0.00 0.00 62 1019.7
20260830195747 74 56 0.0 1.0 0.00 0.00 0.00 61 1019.7
20260830195404 74 77 0.0 1.0 0.00 0.00 0.00 62 1019.6
20260830195246 74 77 0.0 0.0 0.00 0.00 0.00 63 1019.6
20260830194746 74 77 0.0 0.0 0.00 0.00 0.00 63 1019.6
20260830194402 74 77 0.0 0.0 0.00 0.00 0.00 63 1019.6
20260830194247 74 77 0.0 0.0 0.00 0.00 0.00 63 1019.6
20260830193747 74 77 0.0 0.0 0.00 0.00 0.00 63 1019.6
20260830193402 74 77 0.0 0.0 0.00 0.00 0.00 63 1019.6
20260830193247 74 77 0.0 0.0 0.00 0.00 0.00 63 1019.6
20260830192746 74 77 0.0 0.0 0.00 0.00 0.00 63 1019.6
20260830192402 75 77 0.0 0.0 0.00 0.00 0.00 62 1019.5
20260830192246 75 77 0.0 0.0 0.00 0.00 0.00 62 1019.6
20260830191746 75 77 0.0 0.0 0.00 0.00 0.00 62 1019.5
20260830191402 75 77 0.0 1.0 0.00 0.00 0.00 61 1019.5
20260830191245 75 77 0.0 1.0 0.00 0.00 0.00 61 1019.5
20260830190746 75 77 0.0 1.0 0.00 0.00 0.00 61 1019.3
20260830190402 75 77 0.0 1.0 0.00 0.00 0.00 61 1019.3
20260830190253 76 77 0.0 2.0 0.00 0.00 0.00 60 1019.3
20260830190247 76 77 0.0 1.0 0.00 0.00 0.00 61 1019.3
20260830185403 76 77 0.0 2.0 0.00 0.00 0.00 60 1019.2
20260830185247 76 77 0.0 2.0 0.00 0.00 0.00 60 1019.2
20260830185016 76 77 0.0 2.0 0.00 0.00 0.00 60 1019.1
20260830184404 76 76 0.0 2.0 0.00 0.00 0.00 59 1019.1
20260830184247 76 76 0.0 2.0 0.00 0.00 0.00 59 1019.1
20260830183746 76 75 0.0 2.0 0.00 0.00 0.00 58 1019.1
20260830183402 77 75 0.0 0.0 0.00 0.00 0.00 58 1019.1
20260830183246 77 75 0.0 0.0 0.00 0.00 0.00 58 1019.1
20260830182748 77 75 0.0 0.0 0.00 0.00 0.00 58 1018.9
20260830182404 77 75 0.0 0.0 0.00 0.00 0.00 58 1018.9
20260830182247 77 75 0.0 0.0 0.00 0.00 0.00 57 1018.9
20260830181746 77 75 0.0 0.0 0.00 0.00 0.00 57 1018.9
20260830181400 78 75 0.0 1.0 0.00 0.00 0.00 56 1018.9
20260830181245 78 75 0.0 1.0 0.00 0.00 0.00 56 1018.9
20260830180746 78 75 0.0 1.0 0.00 0.00 0.00 56 1018.9
20260830180401 78 75 0.0 1.0 0.00 0.00 0.00 57 1018.7
20260830180245 78 75 0.0 1.0 0.00 0.00 0.00 57 1018.7
20260830175746 78 74 0.0 2.0 0.00 0.00 0.00 55 1018.7
20260830175359 79 74 0.0 2.0 0.00 0.00 0.00 53 1018.7
20260830175248 79 74 0.0 2.0 0.00 0.00 0.00 53 1018.7
20260830174747 79 68 0.0 2.0 0.00 0.00 0.00 52 1018.7
20260830174359 79 69 1.0 2.0 0.00 0.00 0.00 52 1018.9
20260830174245 79 71 1.0 2.0 0.00 0.00 0.00 52 1018.9
20260830173746 79 104 0.0 2.0 0.00 0.00 0.00 52 1018.7
20260830173357 80 124 0.0 2.0 0.00 0.00 0.00 52 1018.6
20260830173246 80 132 0.0 2.0 0.00 0.00 0.00 51 1018.6
20260830172746 80 126 0.0 2.0 0.00 0.00 0.00 51 1018.6
20260830172530 80 116 0.0 2.0 0.00 0.00 0.00 51 1018.7
20260830172514 80 118 0.0 2.0 0.00 0.00 0.00 51 1018.7
20260830171746 80 115 0.0 2.0 0.00 0.00 0.00 50 1018.6
20260830171357 80 101 0.0 2.0 0.00 0.00 0.00 50 1018.6
20260830171246 80 98 0.0 2.0 0.00 0.00 0.00 49 1018.6
20260830170746 81 68 0.0 2.0 0.00 0.00 0.00 49 1018.6
20260830170357 81 170 0.0 2.0 0.00 0.00 0.00 49 1018.7
20260830170248 81 180 0.0 2.0 0.00 0.00 0.00 49 1018.7
20260830165746 81 165 0.0 2.0 0.00 0.00 0.00 49 1018.7
20260830165354 81 161 0.0 2.0 0.00 0.00 0.00 48 1018.7
20260830165244 81 163 0.0 2.0 0.00 0.00 0.00 49 1018.7
20260830164742 81 160 0.0 4.0 0.00 0.00 0.00 48 1018.7
20260830164355 81 158 0.0 6.0 0.00 0.00 0.00 48 1018.6
20260830164241 81 172 0.0 6.0 0.00 0.00 0.00 48 1018.6
20260830163742 82 173 1.0 6.0 0.00 0.00 0.00 48 1018.6
20260830163356 81 119 1.0 6.0 0.00 0.00 0.00 47 1018.4
20260830163241 81 106 1.0 6.0 0.00 0.00 0.00 47 1018.5
20260830163011 82 64 2.0 6.0 0.00 0.00 0.00 47 1018.5
20260830162352 82 61 1.0 6.0 0.00 0.00 0.00 47 1018.5
20260830162242 82 53 1.0 6.0 0.00 0.00 0.00 47 1018.6
20260830161741 82 15 1.0 6.0 0.00 0.00 0.00 47 1018.4
20260830161353 82 131 1.0 5.0 0.00 0.00 0.00 46 1018.4
20260830161241 82 161 2.0 5.0 0.00 0.00 0.00 47 1018.4
20260830160739 83 130 1.0 6.0 0.00 0.00 0.00 46 1018.4
20260830160351 83 123 1.0 6.0 0.00 0.00 0.00 46 1018.4
20260830160240 83 122 1.0 6.0 0.00 0.00 0.00 46 1018.4
20260830155737 83 113 2.0 8.0 0.00 0.00 0.00 46 1018.4
20260830155351 83 123 2.0 8.0 0.00 0.00 0.00 46 1018.4
20260830155237 83 117 2.0 8.0 0.00 0.00 0.00 46 1018.4
20260830154738 84 115 2.0 8.0 0.00 0.00 0.00 45 1018.5
20260830154352 84 106 2.0 8.0 0.00 0.00 0.00 46 1018.6
20260830154236 84 100 2.0 8.0 0.00 0.00 0.00 46 1018.5
20260830153736 85 138 2.0 7.0 0.00 0.00 0.00 45 1018.4
20260830153349 85 195 2.0 7.0 0.00 0.00 0.00 44 1018.5
20260830153236 85 193 2.0 7.0 0.00 0.00 0.00 44 1018.4
20260830152737 85 168 2.0 8.0 0.00 0.00 0.00 44 1018.4
20260830152508 85 49 2.0 8.0 0.00 0.00 0.00 44 1018.3
20260830152458 85 44 2.0 8.0 0.00 0.00 0.00 44 1018.4
20260830151735 84 45 2.0 8.0 0.00 0.00 0.00 45 1018.4
20260830151347 84 91 2.0 9.0 0.00 0.00 0.00 45 1018.4
20260830151236 84 90 2.0 9.0 0.00 0.00 0.00 45 1018.3
20260830150735 85 189 2.0 9.0 0.00 0.00 0.00 45 1018.5
20260830150512 85 128 2.0 9.0 0.00 0.00 0.00 44 1018.4
20260830150502 85 303 2.0 9.0 0.00 0.00 0.00 44 1018.4
20260830150004 85 40 3.0 11.0 0.00 0.00 0.00 44 1018.4
20260830145347 86 92 3.0 11.0 0.00 0.00 0.00 44 1018.3
20260830145236 86 66 3.0 11.0 0.00 0.00 0.00 44 1018.3
20260830144736 86 128 2.0 11.0 0.00 0.00 0.00 43 1018.5
20260830144520 87 237 2.0 11.0 0.00 0.00 0.00 43 1018.4
20260830144503 86 307 2.0 11.0 0.00 0.00 0.00 43 1018.4
20260830143735 86 273 2.0 10.0 0.00 0.00 0.00 44 1018.3
20260830143348 86 306 3.0 10.0 0.00 0.00 0.00 44 1018.4
20260830143235 86 341 3.0 10.0 0.00 0.00 0.00 44 1018.4
20260830143006 85 58 4.0 10.0 0.00 0.00 0.00 45 1018.2
20260830142347 85 74 3.0 11.0 0.00 0.00 0.00 44 1018.3
20260830142233 85 73 3.0 11.0 0.00 0.00 0.00 44 1018.2
20260830141734 86 34 3.0 11.0 0.00 0.00 0.00 44 1018.2
20260830141346 86 338 3.0 11.0 0.00 0.00 0.00 44 1018.3
20260830141235 86 320 3.0 11.0 0.00 0.00 0.00 44 1018.4
20260830141005 85 316 3.0 11.0 0.00 0.00 0.00 45 1018.5
20260830140347 85 314 2.0 9.0 0.00 0.00 0.00 45 1018.2
20260830140233 85 322 2.0 9.0 0.00 0.00 0.00 45 1018.3
20260830135733 85 337 3.0 9.0 0.00 0.00 0.00 44 1018.5
20260830135346 85 18 3.0 9.0 0.00 0.00 0.00 45 1018.4
20260830135233 85 44 3.0 9.0 0.00 0.00 0.00 45 1018.4
20260830134734 85 146 3.0 9.0 0.00 0.00 0.00 45 1018.6
20260830134347 85 24 4.0 9.0 0.00 0.00 0.00 44 1018.5
20260830134233 85 69 3.0 8.0 0.00 0.00 0.00 44 1018.7
20260830134010 86 109 3.0 6.0 0.00 0.00 0.00 43 1018.6
20260830133347 85 61 3.0 6.0 0.00 0.00 0.00 44 1018.6
20260830133233 85 37 3.0 7.0 0.00 0.00 0.00 44 1018.6
20260830132731 85 18 2.0 8.0 0.00 0.00 0.00 44 1018.7
20260830132349 86 48 2.0 8.0 0.00 0.00 0.00 44 1018.9
20260830132231 86 57 2.0 8.0 0.00 0.00 0.00 43 1018.9
20260830132009 85 18 3.0 8.0 0.00 0.00 0.00 45 1018.7
20260830131507 85 342 3.0 8.0 0.00 0.00 0.00 45 1018.9
20260830131458 85 350 3.0 8.0 0.00 0.00 0.00 46 1019.0
20260830130734 86 0 2.0 9.0 0.00 0.00 0.00 44 1018.9
20260830130347 86 19 2.0 10.0 0.00 0.00 0.00 43 1019.0
20260830130231 86 11 2.0 10.0 0.00 0.00 0.00 44 1018.9
20260830125731 85 18 3.0 10.0 0.00 0.00 0.00 44 1019.0
20260830125347 85 19 4.0 10.0 0.00 0.00 0.00 45 1019.1
20260830125230 85 30 4.0 10.0 0.00 0.00 0.00 45 1019.0
20260830124743 85 154 2.0 9.0 0.00 0.00 0.00 44 1019.2
20260830124733 85 112 3.0 10.0 0.00 0.00 0.00 45 1019.0
20260830124453 85 130 3.0 9.0 0.00 0.00 0.00 44 1019.1
20260830123729 85 124 2.0 8.0 0.00 0.00 0.00 44 1018.7
20260830123347 85 86 3.0 10.0 0.00 0.00 0.00 45 1018.6
20260830123230 85 71 3.0 10.0 0.00 0.00 0.00 44 1018.6
20260830122956 85 45 3.0 10.0 0.00 0.00 0.00 45 1018.7
20260830122511 84 25 3.0 10.0 0.00 0.00 0.00 46 1018.6
20260830122457 84 11 3.0 10.0 0.00 0.00 0.00 46 1018.5
20260830121728 84 252 3.0 10.0 0.00 0.00 0.00 45 1018.7
20260830121347 85 203 3.0 8.0 0.00 0.00 0.00 45 1018.9
20260830121226 84 214 2.0 9.0 0.00 0.00 0.00 46 1018.9
20260830120726 84 348 2.0 9.0 0.00 0.00 0.00 45 1018.9
20260830120349 84 338 2.0 10.0 0.00 0.00 0.00 46 1018.7
20260830120226 84 334 3.0 10.0 0.00 0.00 0.00 46 1018.7
20260830115726 83 214 4.0 11.0 0.00 0.00 0.00 46 1018.7
20260830115347 83 199 4.0 11.0 0.00 0.00 0.00 47 1018.9
20260830115226 83 195 4.0 11.0 0.00 0.00 0.00 47 1019.0
20260830114727 82 224 4.0 13.0 0.00 0.00 0.00 47 1018.9
20260830114347 82 235 4.0 13.0 0.00 0.00 0.00 47 1019.1
20260830114229 82 226 4.0 13.0 0.00 0.00 0.00 48 1019.0
20260830113726 81 246 5.0 13.0 0.00 0.00 0.00 48 1018.5
20260830113348 81 211 4.0 13.0 0.00 0.00 0.00 47 1018.6
20260830113226 81 236 5.0 13.0 0.00 0.00 0.00 48 1018.6
20260830112726 81 337 4.0 13.0 0.00 0.00 0.00 48 1018.6
20260830112348 81 15 4.0 13.0 0.00 0.00 0.00 48 1018.6
20260830112226 80 14 4.0 13.0 0.00 0.00 0.00 49 1018.6
20260830111726 80 18 4.0 10.0 0.00 0.00 0.00 48 1018.9
20260830111348 80 72 4.0 10.0 0.00 0.00 0.00 48 1018.6
20260830111226 80 92 4.0 10.0 0.00 0.00 0.00 49 1018.7
20260830110726 80 118 4.0 11.0 0.00 0.00 0.00 48 1019.0
20260830110349 80 160 3.0 11.0 0.00 0.00 0.00 49 1019.0
20260830110226 80 171 4.0 11.0 0.00 0.00 0.00 48 1019.0
20260830105726 80 150 4.0 11.0 0.00 0.00 0.00 48 1019.0
20260830105501 80 109 4.0 11.0 0.00 0.00 0.00 48 1019.0
20260830105450 80 119 4.0 11.0 0.00 0.00 0.00 48 1019.1
20260830104726 79 92 4.0 9.0 0.00 0.00 0.00 49 1019.0
20260830104349 80 73 4.0 12.0 0.00 0.00 0.00 47 1019.1
20260830104226 80 80 3.0 12.0 0.00 0.00 0.00 49 1019.1
20260830103726 79 128 4.0 12.0 0.00 0.00 0.00 49 1019.1
20260830103346 79 152 4.0 12.0 0.00 0.00 0.00 48 1019.2
20260830103226 79 156 5.0 12.0 0.00 0.00 0.00 49 1019.2
20260830102727 79 166 5.0 11.0 0.00 0.00 0.00 49 1019.1
20260830102346 79 262 5.0 11.0 0.00 0.00 0.00 48 1019.4
20260830102225 79 266 5.0 11.0 0.00 0.00 0.00 49 1019.3
20260830101725 79 329 4.0 10.0 0.00 0.00 0.00 48 1019.2
20260830101347 78 44 4.0 10.0 0.00 0.00 0.00 48 1019.2
20260830101226 78 41 4.0 10.0 0.00 0.00 0.00 48 1019.3
20260830100726 78 43 4.0 10.0 0.00 0.00 0.00 45 1019.4
20260830100511 78 21 3.0 8.0 0.00 0.00 0.00 45 1019.3
20260830100456 78 46 3.0 8.0 0.00 0.00 0.00 45 1019.5
20260830095726 78 9 3.0 8.0 0.00 0.00 0.00 45 1019.5
20260830095346 78 353 3.0 8.0 0.00 0.00 0.00 44 1019.6
20260830095226 78 347 3.0 8.0 0.00 0.00 0.00 44 1019.5
20260830094726 78 343 2.0 8.0 0.00 0.00 0.00 43 1019.7
20260830094349 78 31 2.0 8.0 0.00 0.00 0.00 43 1019.6
20260830094226 78 57 2.0 8.0 0.00 0.00 0.00 42 1019.6
20260830093725 78 103 2.0 7.0 0.00 0.00 0.00 42 1019.6
20260830093349 78 113 2.0 7.0 0.00 0.00 0.00 40 1019.8
20260830093225 78 108 2.0 7.0 0.00 0.00 0.00 40 1019.6
20260830092725 77 104 2.0 7.0 0.00 0.00 0.00 40 1019.7
20260830092347 77 99 2.0 6.0 0.00 0.00 0.00 41 1019.7
20260830092226 77 99 2.0 6.0 0.00 0.00 0.00 40 1019.8
20260830091725 78 91 2.0 5.0 0.00 0.00 0.00 39 1019.7
20260830091457 77 90 2.0 5.0 0.00 0.00 0.00 39 1019.7
20260830091444 77 90 1.0 5.0 0.00 0.00 0.00 40 1019.7
20260830090727 77 76 2.0 5.0 0.00 0.00 0.00 39 1019.6
20260830090346 77 87 2.0 4.0 0.00 0.00 0.00 40 1019.7
20260830090228 78 100 1.0 4.0 0.00 0.00 0.00 39 1019.7
20260830085726 78 128 1.0 3.0 0.00 0.00 0.00 40 1019.8
20260830085348 78 149 1.0 3.0 0.00 0.00 0.00 39 1019.8
20260830085227 78 161 1.0 3.0 0.00 0.00 0.00 38 1019.8
20260830084726 78 189 1.0 3.0 0.00 0.00 0.00 39 1019.8
20260830084347 77 200 1.0 3.0 0.00 0.00 0.00 40 1019.8
20260830084226 77 203 1.0 3.0 0.00 0.00 0.00 40 1019.7
20260830083723 76 225 1.0 4.0 0.00 0.00 0.00 41 1019.7
20260830083347 76 238 1.0 4.0 0.00 0.00 0.00 40 1019.7
20260830083224 76 236 1.0 4.0 0.00 0.00 0.00 40 1019.7
20260830082724 76 217 1.0 4.0 0.00 0.00 0.00 40 1019.6
20260830082348 76 200 1.0 4.0 0.00 0.00 0.00 40 1019.8
20260830082224 76 198 1.0 4.0 0.00 0.00 0.00 40 1019.7
20260830081724 76 210 1.0 5.0 0.00 0.00 0.00 41 1019.7
20260830081347 75 220 1.0 5.0 0.00 0.00 0.00 41 1019.5
20260830081221 75 225 1.0 5.0 0.00 0.00 0.00 41 1019.6
20260830080723 74 232 2.0 5.0 0.00 0.00 0.00 42 1019.5
20260830080347 74 235 2.0 5.0 0.00 0.00 0.00 42 1019.5
20260830080221 74 234 2.0 5.0 0.00 0.00 0.00 43 1019.5
20260830075723 74 237 2.0 8.0 0.00 0.00 0.00 43 1019.5
20260830075348 73 231 2.0 8.0 0.00 0.00 0.00 44 1019.4
20260830075221 73 230 2.0 8.0 0.00 0.00 0.00 44 1019.4
20260830074721 73 228 3.0 8.0 0.00 0.00 0.00 45 1019.5
20260830074348 72 234 3.0 8.0 0.00 0.00 0.00 45 1019.5
20260830074221 72 234 4.0 8.0 0.00 0.00 0.00 45 1019.5
20260830073717 72 239 4.0 8.0 0.00 0.00 0.00 45 1019.3
20260830073453 71 237 4.0 8.0 0.00 0.00 0.00 45 1019.5
20260830073445 72 235 4.0 8.0 0.00 0.00 0.00 45 1019.4
20260830072948 71 239 4.0 8.0 0.00 0.00 0.00 45 1019.3
20260830072347 71 241 4.0 10.0 0.00 0.00 0.00 45 1019.2
20260830072218 71 241 4.0 11.0 0.00 0.00 0.00 45 1019.2
20260830071718 71 240 4.0 11.0 0.00 0.00 0.00 45 1019.2
20260830071347 71 242 5.0 11.0 0.00 0.00 0.00 45 1019.2
20260830071216 70 245 5.0 11.0 0.00 0.00 0.00 46 1019.1
20260830070716 70 247 4.0 11.0 0.00 0.00 0.00 46 1019.1
20260830070347 70 244 3.0 11.0 0.00 0.00 0.00 48 1019.2
20260830070215 70 244 2.0 10.0 0.00 0.00 0.00 48 1019.1
20260830065716 69 250 4.0 10.0 0.00 0.00 0.00 49 1019.1
20260830065346 69 259 5.0 10.0 0.00 0.00 0.00 49 1019.1
20260830065216 69 257 5.0 10.0 0.00 0.00 0.00 49 1019.1
20260830064716 69 257 5.0 10.0 0.00 0.00 0.00 48 1019.0
20260830064347 69 258 4.0 9.0 0.00 0.00 0.00 48 1019.0
20260830064219 68 258 4.0 9.0 0.00 0.00 0.00 47 1019.1
20260830063716 68 261 4.0 9.0 0.00 0.00 0.00 48 1019.1
20260830063347 68 264 3.0 9.0 0.00 0.00 0.00 48 1019.0
20260830063216 68 268 3.0 9.0 0.00 0.00 0.00 49 1019.0
20260830062715 67 270 2.0 10.0 0.00 0.00 0.00 51 1018.9
20260830062346 67 275 2.0 10.0 0.00 0.00 0.00 51 1018.9
20260830062216 67 278 2.0 10.0 0.00 0.00 0.00 51 1019.0
20260830061715 67 285 3.0 10.0 0.00 0.00 0.00 51 1018.9
20260830061449 66 279 2.0 10.0 0.00 0.00 0.00 50 1018.9
20260830061436 66 284 2.0 10.0 0.00 0.00 0.00 51 1018.9
20260830060715 65 276 2.0 6.0 0.00 0.00 0.00 54 1018.6
20260830060351 65 272 2.0 6.0 0.00 0.00 0.00 54 1018.6
20260830060215 65 285 2.0 6.0 0.00 0.00 0.00 55 1018.5
20260830055714 66 302 2.0 6.0 0.00 0.00 0.00 53 1018.5
20260830055347 65 318 1.0 6.0 0.00 0.00 0.00 54 1018.5
20260830055212 65 309 2.0 6.0 0.00 0.00 0.00 53 1018.5
20260830054710 65 302 2.0 6.0 0.00 0.00 0.00 55 1018.4
20260830054348 65 293 2.0 6.0 0.00 0.00 0.00 55 1018.4
20260830054211 65 288 2.0 6.0 0.00 0.00 0.00 54 1018.4
20260830053712 65 281 3.0 6.0 0.00 0.00 0.00 54 1018.7
20260830053445 65 276 2.0 6.0 0.00 0.00 0.00 53 1018.6
20260830053434 65 276 2.0 6.0 0.00 0.00 0.00 54 1018.6
20260830052712 65 280 2.0 6.0 0.00 0.00 0.00 55 1018.5
20260830052349 65 285 2.0 6.0 0.00 0.00 0.00 53 1018.6
20260830052211 65 287 2.0 6.0 0.00 0.00 0.00 53 1018.6
20260830051712 66 288 2.0 6.0 0.00 0.00 0.00 53 1018.5
20260830051347 65 293 2.0 6.0 0.00 0.00 0.00 53 1018.5
20260830051211 65 295 2.0 6.0 0.00 0.00 0.00 54 1018.4
20260830050707 65 298 2.0 7.0 0.00 0.00 0.00 54 1018.4
20260830050347 65 292 1.0 7.0 0.00 0.00 0.00 54 1018.5
20260830050208 65 293 1.0 7.0 0.00 0.00 0.00 54 1018.4
20260830045708 65 290 2.0 7.0 0.00 0.00 0.00 53 1018.3
20260830045347 66 293 2.0 7.0 0.00 0.00 0.00 53 1018.3
20260830045207 66 296 2.0 7.0 0.00 0.00 0.00 53 1018.4
20260830044706 65 306 1.0 8.0 0.00 0.00 0.00 53 1018.3
20260830044348 66 306 1.0 9.0 0.00 0.00 0.00 53 1018.3
20260830044206 66 299 2.0 9.0 0.00 0.00 0.00 53 1018.3
20260830043706 66 283 3.0 9.0 0.00 0.00 0.00 52 1018.3
20260830043348 66 277 4.0 9.0 0.00 0.00 0.00 52 1018.5
20260830043206 66 278 4.0 9.0 0.00 0.00 0.00 51 1018.5
20260830042706 66 295 3.0 9.0 0.00 0.00 0.00 52 1018.4
20260830042348 66 303 2.0 6.0 0.00 0.00 0.00 55 1018.4
20260830042206 66 308 1.0 5.0 0.00 0.00 0.00 55 1018.2
20260830041706 66 307 1.0 5.0 0.00 0.00 0.00 56 1018.3
20260830041347 66 305 1.0 5.0 0.00 0.00 0.00 55 1018.4
20260830041207 66 301 1.0 5.0 0.00 0.00 0.00 55 1018.3
20260830040707 66 304 1.0 5.0 0.00 0.00 0.00 56 1018.3
20260830040347 66 304 1.0 10.0 0.00 0.00 0.00 55 1018.2
20260830040207 66 307 1.0 10.0 0.00 0.00 0.00 54 1018.3
20260830035937 66 297 1.0 10.0 0.00 0.00 0.00 53 1018.1
20260830035347 66 295 2.0 10.0 0.00 0.00 0.00 53 1018.2
20260830035206 66 290 3.0 10.0 0.00 0.00 0.00 52 1018.1
20260830034706 66 284 4.0 10.0 0.00 0.00 0.00 51 1018.3
20260830034347 66 282 4.0 9.0 0.00 0.00 0.00 51 1018.2
20260830034206 66 281 4.0 8.0 0.00 0.00 0.00 51 1018.1
20260830033706 66 272 3.0 8.0 0.00 0.00 0.00 53 1018.5
20260830033443 66 270 2.0 7.0 0.00 0.00 0.00 55 1018.3
20260830033209 65 271 2.0 7.0 0.00 0.00 0.00 57 1018.2
20260830032347 67 278 3.0 7.0 0.00 0.00 0.00 52 1018.4
20260830032205 67 272 3.0 7.0 0.00 0.00 0.00 51 1018.4
20260830031705 67 264 2.0 7.0 0.00 0.00 0.00 52 1018.5
20260830031348 67 264 2.0 7.0 0.00 0.00 0.00 52 1018.4
20260830031206 67 268 2.0 7.0 0.00 0.00 0.00 51 1018.3
20260830030704 67 266 3.0 8.0 0.00 0.00 0.00 50 1018.3
20260830030348 68 263 3.0 8.0 0.00 0.00 0.00 49 1018.4
20260830030204 68 265 3.0 8.0 0.00 0.00 0.00 48 1018.4
20260830025703 68 267 3.0 8.0 0.00 0.00 0.00 49 1018.4
20260830025347 68 266 4.0 9.0 0.00 0.00 0.00 51 1018.5
20260830025203 68 265 4.0 9.0 0.00 0.00 0.00 48 1018.5
20260830024704 68 272 3.0 11.0 0.00 0.00 0.00 48 1018.4
20260830024347 68 276 3.0 11.0 0.00 0.00 0.00 50 1018.4
20260830024204 68 276 4.0 11.0 0.00 0.00 0.00 49 1018.4
20260830023704 68 275 4.0 11.0 0.00 0.00 0.00 47 1018.9
20260830023347 68 279 3.0 11.0 0.00 0.00 0.00 48 1018.7
20260830023203 68 279 2.0 11.0 0.00 0.00 0.00 48 1018.7
20260830022703 68 273 2.0 7.0 0.00 0.00 0.00 50 1018.6